Flag for United Kingdom Weather past 2 weeks in Haywards Heath, England, United Kingdom

Now
81 °F

Scattered clouds.


Feels Like: 82 °F
Forecast: 60 / 80 °F
Wind: 13 mph from East

Location: London / Gatwick Airport

Current Time: Jul 23, 2014 at 3:14:54 PM

Latest Report: Jul 23, 2014 at 2:20 PM


Visibility: N/A

Pressure: 30.07 "Hg

Humidity: 58%

Dew point: 64 °F

Location of Haywards HeathLocation

Historic Weather in Haywards Heath — Graph

°F

Haywards Heath temperature yesterday

Maximum temperature yesterday: 81 °F (at 3:50 PM)
Minimum temperature yesterday: 59 °F (at 4:50 AM)
Average temperature yesterday: 70 °F

Past Weeks' High & Low Weather Summary

 TemperatureHumidityPressure
High82 °F (Jul 17, 2:50 PM)100% (Jul 8, 11:50 PM)30.21 "Hg (Jul 8, 11:50 PM)
Low52 °F (Jul 11, 3:50 AM)41% (Jul 9, 4:50 PM)29.74 "Hg (Jul 13, 10:50 AM)
Average67 °F75%30.00 "Hg
* Reported Jul 8 2:20 PM — Jul 23 2:20 PM, Haywards Heath, Weather by CustomWeather, © 2014

Note: Actual official high and low records may vary slightly from our data, if they occured in-between our weather recording intervals... More about our weather records

Advertising

Haywards Heath weather history for previous 24 hours

 ConditionsComfort  
Time TempWeatherWind HumidityBarometerVisibility
2:20 PM
Jul 23
81 °FScattered clouds.13 mph58%30.07 "HgN/A
1:20 PM79 °FScattered clouds.10 mph61%30.09 "HgN/A
12:50 PM77 °FScattered clouds.12 mph65%30.09 "HgN/A
12:20 PM77 °FPassing clouds.10 mph61%30.09 "HgN/A
10:50 AM72 °FPassing clouds.10 mph69%30.12 "HgN/A
10:20 AM72 °FPassing clouds.10 mph69%30.12 "HgN/A
9:50 AM70 °FSunny.9 mph73%30.12 "Hg10 mi
9:20 AM68 °FPassing clouds.10 mph78%30.12 "HgN/A
6:50 AM63 °FPassing clouds.9 mph83%30.15 "HgN/A
6:20 AM61 °FSunny.8 mph88%30.15 "Hg10 mi
5:50 AM61 °FPassing clouds.6 mph88%30.15 "HgN/A
5:20 AM61 °FClear.7 mph88%30.15 "Hg10 mi
4:50 AM61 °FClear.8 mph88%30.15 "Hg10 mi
4:20 AM61 °FClear.8 mph88%30.15 "Hg10 mi
3:50 AM61 °FClear.7 mph88%30.15 "Hg10 mi
2:50 AM63 °FClear.7 mph88%30.18 "Hg10 mi
2:20 AM63 °FClear.7 mph88%30.18 "Hg10 mi
1:50 AM64 °FClear.8 mph83%30.18 "Hg10 mi
1:20 AM64 °FClear.8 mph83%30.18 "Hg10 mi
12:50 AM66 °FClear.7 mph78%30.18 "Hg10 mi
5:50 PM
Jul 22
79 °FSunny.10 mph54%30.15 "Hg10 mi
5:20 PM79 °FPassing clouds.12 mph54%30.15 "HgN/A
4:50 PM79 °FScattered clouds.9 mph54%30.15 "HgN/A
4:20 PM81 °FScattered clouds.9 mph51%30.15 "HgN/A
3:50 PM81 °FScattered clouds.9 mph51%30.18 "HgN/A
3:20 PM79 °FScattered clouds.9 mph54%30.18 "HgN/A
Weather by CustomWeather, © 2014

See weather overviewHow to use our weather pages